Flag for U.S.A. Weather past 2 weeks in Redmond, Washington, U.S.A.

Now
46 °F

Passing clouds.


Feels Like: 46 °F
Forecast: 39 / 51 °F
Wind: No wind

Location: Seattle Boeing Field

Current Time: Jan 29, 2015 at 2:25:10 AM

Latest Report: Jan 29, 2015 at 1:53 AM


Visibility: 10 mi

Pressure: 30.37 "Hg

Humidity: 77%

Dew point: 39 °F

Location of RedmondLocation

Historic Weather in Redmond — Graph

°F

Redmond temperature yesterday

Maximum temperature yesterday: 55 °F (at 2:53 PM)
Minimum temperature yesterday: 46 °F (at 8:53 PM)
Average temperature yesterday: 50 °F

Past Weeks' High & Low Weather Summary

 TemperatureHumidityPressure
High65 °F (Jan 25, 2:53 PM)94% (Jan 26, 5:01 AM)30.46 "Hg (Jan 26, 5:01 AM)
Low33 °F (Jan 21, 6:53 AM)52% (Jan 26, 2:53 PM)29.60 "Hg (Jan 17, 11:53 PM)
Average49 °F78%30.19 "Hg
* Reported Jan 14 12:53 AM — Jan 29 12:53 AM, Redmond, Weather by CustomWeather, © 2014

Note: Actual official high and low records may vary slightly from our data, if they occured in-between our weather recording intervals... More about our weather records

Advertising

Redmond weather history for previous 24 hours

 ConditionsComfort  
Time TempWeatherWind HumidityBarometerVisibility
12:53 AM
Jan 29
45 °FPassing clouds.No wind80%30.37 "Hg10 mi
11:53 PM
Jan 28
47 °FPassing clouds.No wind77%30.37 "Hg10 mi
10:53 PM46 °FClear.No wind79%30.36 "Hg10 mi
9:53 PM46 °FClear.No wind79%30.36 "Hg10 mi
8:53 PM46 °FClear.No wind79%30.36 "Hg10 mi
7:53 PM48 °FClear.No wind77%30.36 "Hg10 mi
6:53 PM50 °FClear.No wind71%30.36 "Hg10 mi
5:53 PM52 °FPassing clouds.3 mph69%30.37 "Hg10 mi
4:53 PM53 °FScattered clouds.5 mph66%30.36 "Hg10 mi
3:53 PM53 °FScattered clouds.5 mph66%30.36 "Hg10 mi
2:53 PM55 °FScattered clouds.3 mph64%30.36 "Hg10 mi
1:53 PM54 °FScattered clouds.3 mph67%30.37 "Hg10 mi
12:53 PM53 °FBroken clouds.5 mph72%30.38 "Hg10 mi
11:53 AM53 °FBroken clouds.5 mph72%30.39 "Hg10 mi
10:53 AM51 °FMore clouds than sun.3 mph74%30.40 "Hg10 mi
9:53 AM51 °FBroken clouds.No wind74%30.39 "Hg10 mi
8:53 AM49 °FBroken clouds.No wind77%30.37 "Hg10 mi
7:53 AM48 °FMore clouds than sun.No wind80%30.36 "Hg10 mi
6:53 AM49 °FPassing clouds.No wind80%30.36 "Hg10 mi
5:53 AM48 °FMostly cloudy.3 mph83%30.35 "Hg10 mi
4:53 AM48 °FOvercast.5 mph80%30.34 "Hg10 mi
3:53 AM48 °FOvercast.6 mph80%30.34 "Hg10 mi
2:53 AM49 °FOvercast.5 mph77%30.33 "Hg10 mi
Weather by CustomWeather, © 2014

See weather overviewHow to use our weather pages